Wind_Speed
7 9 9 9 8 8 8 8 8 8 7 7 7 6 6 6 6 6 6 6 6 6 5 5 5 4 4 4 5 4 4 4 3 2 2 2 2 2 3 4 4 3 2 3 3 2 1 1 2 4 6 4 4 5 6 4 3 4 5 6 7 8 9
7 8 9 9 9 9 8 8 8 8 7 7 7 7 8 8 8 8 7 7 7 6 6 6 6 5 5 5 5 5 4 5 5 4 3 2 3 3 3 3 3 3 1 1 3 3 2 1 1 1 2 4 5 4 5 7 7 8 9 9 9 8 8
8 8 9 9 9 9 8 8 8 8 8 7 8 8 8 8 8 7 7 7 7 7 6 7 6 6 7 7 7 6 6 5 5 5 4 3 3 3 3 3 3 4 4 2 2 3 3 3 3 3 3 3 3 4 7 10 11 11 12 12 12 12 12
10 9 9 9 9 9 9 9 8 7 8 8 8 8 8 8 7 7 7 7 7 7 6 6 6 6 6 7 7 7 7 6 5 5 5 4 3 3 3 2 2 2 2 2 2 3 4 4 4 4 5 5 5 6 7 9 11 11 11 12 13 14 14
12 11 10 10 10 9 9 9 8 8 8 8 8 8 8 8 7 6 6 6 6 6 6 6 6 5 5 5 6 6 6 6 6 5 5 4 3 3 3 2 2 2 2 2 2 2 3 4 4 5 5 6 7 7 6 7 10 11 11 12 13 13 13
13 12 10 10 10 9 9 9 9 9 9 9 9 9 10 9 8 7 6 5 5 5 5 6 6 6 5 5 5 6 6 6 6 5 5 5 4 4 3 3 2 2 2 2 2 2 3 4 5 5 6 6 7 8 8 9 10 10 10 11 12 12 13
13 13 11 10 10 10 9 9 10 9 9 9 10 9 10 10 8 7 7 6 5 5 5 6 5 5 5 5 6 6 6 6 6 6 6 5 5 4 4 3 3 3 2 2 2 2 3 4 4 5 6 7 7 9 9 9 9 8 8 8 9 10 10
13 13 12 11 11 11 10 10 10 9 9 10 10 10 11 11 9 9 8 7 7 6 5 5 5 5 4 5 5 5 5 5 5 5 5 5 5 5 4 4 3 3 4 3 3 3 3 4 4 5 6 6 6 6 7 7 7 7 7 6 7 8 9
13 13 13 12 12 12 11 11 11 10 10 9 10 11 11 11 10 10 9 8 8 7 6 6 5 5 4 4 4 5 5 5 5 5 5 5 5 4 4 4 3 3 4 4 4 4 4 4 5 6 6 7 6 5 5 5 5 5 5 5 6 6 6
15 14 13 14 14 14 13 12 11 11 11 10 10 11 12 11 10 10 9 9 9 8 7 7 6 6 5 5 5 5 5 5 5 4 4 4 4 4 4 3 3 3 4 4 4 4 5 5 6 6 7 7 8 6 5 5 5 5 4 5 5 5 5
17 16 15 14 14 14 14 13 12 12 12 11 11 11 12 12 11 11 10 9 9 8 8 7 7 6 6 5 5 5 5 5 5 4 4 3 3 3 3 3 2 2 3 4 4 4 5 6 6 7 7 8 8 8 8 7 6 7 7 7 7 7 6
18 17 16 14 14 14 15 15 14 14 14 14 13 13 13 13 12 12 11 10 10 9 9 8 8 7 6 5 5 5 5 5 4 4 4 3 2 2 2 2 1 1 2 3 3 4 5 6 7 8 8 8 9 9 10 9 7 8 9 9 9 9 9
18 17 16 15 15 15 15 15 15 15 15 15 15 15 15 15 14 14 13 12 11 11 10 9 8 8 7 6 6 5 5 5 5 4 4 3 3 2 2 1 0 0 2 3 3 5 6 6 7 9 9 9 10 10 11 12 10 9 11 12 12 12 12
15 15 14 15 15 15 15 15 15 15 15 16 16 17 17 16 16 16 15 14 13 12 11 10 9 8 8 7 7 6 6 6 5 5 4 4 4 2 1 1 1 1 2 3 4 5 6 6 8 9 9 10 10 10 11 13 13 12 13 13 12 13 12
15 15 15 15 16 16 15 15 15 15 16 16 17 18 18 18 18 17 16 16 15 13 12 12 11 10 9 9 8 8 7 7 6 6 5 4 4 2 2 2 2 2 3 4 5 7 7 8 9 9 9 10 11 11 11 13 14 14 14 14 13 14 13
15 15 16 17 17 17 16 15 15 15 16 16 16 18 19 19 20 19 18 17 16 15 14 13 12 11 11 11 10 9 8 8 7 7 6 4 3 2 2 3 3 4 4 6 7 8 9 8 9 9 10 10 11 12 12 13 15 15 16 15 14 14 14
13 14 16 17 17 16 16 16 15 16 16 15 16 18 19 20 21 21 20 18 17 17 16 15 14 13 12 12 11 10 9 8 8 7 6 5 3 3 3 4 5 5 6 8 9 10 9 9 9 10 11 11 11 12 13 13 15 16 16 16 15 15 14
11 13 15 16 16 15 15 15 15 15 15 16 17 18 18 19 19 19 20 19 19 19 18 17 16 15 14 13 12 11 10 9 8 7 6 5 4 4 4 4 5 6 7 9 10 11 11 11 11 11 11 11 12 12 12 13 15 16 17 17 17 15 15
10 11 13 14 14 15 16 16 15 15 15 17 18 16 15 16 17 19 20 21 21 21 20 19 18 16 15 14 13 12 11 10 8 7 6 5 5 4 4 5 6 7 8 10 11 11 11 12 12 12 12 12 12 12 13 14 15 16 17 18 18 17 16
8 10 13 13 13 14 15 15 16 16 16 18 18 18 19 21 22 23 23 23 23 23 21 20 19 18 17 15 14 13 11 10 9 7 6 5 5 5 6 7 7 8 9 10 11 11 11 11 12 12 12 12 12 13 14 14 15 16 17 18 17 17 16
6 8 11 13 14 15 14 15 17 17 18 19 19 20 22 25 25 25 24 23 22 22 21 20 19 18 17 16 14 12 11 9 8 6 5 5 5 6 7 8 9 9 9 10 12 12 13 13 13 13 13 13 13 14 14 14 15 15 16 17 17 16 16
6 6 8 10 11 12 13 15 16 16 18 19 19 20 22 23 25 26 24 23 21 20 19 18 18 18 17 15 14 12 10 8 7 5 4 4 5 7 8 9 10 10 12 14 16 17 17 17 18 17 16 14 14 14 15 15 15 16 16 16 17 16 16
7 7 8 8 8 9 11 12 13 15 17 17 18 19 19 20 22 22 21 21 20 18 16 17 18 19 17 14 12 10 9 7 6 4 4 5 6 7 9 10 11 12 15 18 19 18 18 18 19 20 19 18 17 16 16 16 16 17 17 17 17 17 16
8 8 8 9 8 8 9 10 12 15 15 15 17 17 17 18 19 19 19 20 19 17 17 19 21 21 19 15 12 9 8 7 5 4 4 5 6 8 9 10 11 12 14 15 16 16 17 19 20 21 21 21 21 20 19 19 18 17 17 18 18 18 17
8 9 9 9 9 9 9 10 12 13 14 15 16 16 17 18 19 20 20 20 20 21 21 21 21 20 18 15 12 8 6 5 4 4 4 5 7 8 9 10 11 12 12 13 15 16 17 19 20 21 21 21 22 22 23 23 22 21 20 19 20 19 19
9 9 9 9 9 10 10 11 12 12 14 15 16 16 17 18 20 22 21 19 20 22 22 21 20 18 15 13 11 7 4 3 3 4 4 5 7 8 9 11 12 12 12 13 15 15 15 16 17 18 19 20 22 23 24 25 25 25 24 23 23 22 21
10 10 10 10 10 10 11 12 12 12 13 14 15 16 17 18 20 20 20 20 21 23 22 20 18 16 13 10 7 5 4 3 3 4 5 6 8 9 10 11 12 13 12 12 13 13 13 13 14 15 16 18 20 21 22 23 24 25 26 27 27 27 25
11 11 11 11 11 11 11 11 12 12 13 14 16 16 17 19 19 19 21 23 24 24 22 18 15 12 10 6 3 3 4 3 4 5 6 7 8 9 10 11 12 13 13 12 12 13 13 13 14 15 16 17 19 19 20 21 23 24 26 27 28 27 26
11 11 12 11 12 12 11 12 12 12 13 14 15 15 16 17 19 22 24 26 26 25 20 16 12 9 6 3 1 2 3 4 5 5 6 8 8 9 10 10 11 12 12 12 13 14 16 15 15 17 18 19 20 20 21 21 22 25 27 28 28 28 27
12 12 12 13 13 13 11 11 11 11 13 15 14 14 15 18 21 25 27 27 27 25 19 14 10 7 4 3 2 1 4 5 5 6 8 8 9 10 10 11 12 13 13 13 13 14 16 16 17 19 21 22 23 24 24 23 23 25 27 29 30 32 33
13 13 14 14 13 12 12 12 11 11 13 14 13 14 17 21 24 26 27 26 23 20 17 12 9 6 4 3 3 2 5 6 6 8 9 9 10 11 11 14 15 14 14 14 15 17 18 18 19 21 23 24 24 25 25 24 24 24 24 26 28 29 31
14 15 15 14 14 13 12 10 8 8 10 13 15 17 22 26 27 25 23 21 18 16 15 12 8 6 4 3 3 3 5 7 8 9 10 11 12 12 13 15 15 15 16 16 17 18 19 20 21 22 23 24 25 26 24 23 23 24 23 24 25 25 26
16 16 15 15 14 11 7 8 9 10 12 15 19 24 28 29 27 23 20 18 16 14 13 10 7 5 3 2 4 5 6 8 9 10 11 13 14 15 15 15 14 14 15 16 17 19 20 22 23 23 24 25 26 25 23 23 24 24 24 25 25 25 25
16 16 17 16 12 8 9 11 12 14 17 22 27 29 29 28 26 23 20 17 15 13 11 8 5 3 2 2 4 6 7 8 10 12 14 16 16 16 16 15 14 14 17 19 21 23 24 26 26 25 26 27 28 27 26 26 26 26 26 26 26 26 26
18 18 18 15 10 10 11 13 16 21 26 30 32 30 28 26 25 22 19 16 13 10 8 7 5 2 0 2 5 7 8 10 12 14 16 17 17 16 16 16 15 17 20 21 23 25 27 29 29 29 29 30 31 31 31 30 28 27 26 26 26 26 25
19 17 14 13 12 12 14 20 26 31 32 31 28 26 24 23 21 18 15 13 11 8 6 5 3 1 2 5 8 10 12 14 15 15 15 15 17 16 16 16 17 19 22 23 26 28 30 30 30 29 29 30 31 31 30 29 28 27 26 26 26 26 25
17 14 12 13 15 17 23 28 31 31 28 24 21 19 18 17 16 14 13 12 11 8 6 4 1 2 5 7 9 11 13 14 15 14 13 14 16 16 17 18 21 24 26 28 29 30 30 29 28 27 27 28 28 28 27 26 26 26 26 26 26 26 26
Wind_Direction
154 146 146 142 139 136 131 130 128 126 124 121 119 118 120 119 113 110 103 100 95 90 87 76 65 61 58 56 51 47 40 33 26 15 10 338 336 29 18 9 26 28 38 51 37 15 337 285 271 246 237 266 293 271 264 266 296 305 292 288 275 263 259
156 152 152 147 144 142 138 136 134 131 128 124 122 120 119 117 112 109 104 100 95 87 84 79 71 70 68 64 59 52 50 49 43 35 25 6 352 352 345 334 334 316 274 75 39 12 339 296 321 321 282 310 310 284 273 264 271 282 276 277 281 273 266
165 162 160 154 154 153 149 148 144 142 139 133 131 130 127 122 116 112 107 101 97 91 88 86 80 75 72 71 70 67 63 59 53 50 45 36 32 23 357 329 310 303 284 259 276 301 286 265 283 293 277 288 281 285 294 276 265 270 267 267 272 269 263
174 173 171 166 166 164 161 160 159 156 151 147 144 142 139 133 125 119 113 106 102 99 97 95 88 82 78 76 74 72 70 68 66 64 58 51 46 43 32 8 353 345 324 300 294 298 289 278 284 283 272 269 265 273 279 264 259 265 264 263 265 263 258
181 183 184 180 176 174 173 169 166 165 162 160 158 154 154 148 138 130 122 112 105 102 101 100 98 95 90 85 81 78 77 74 72 70 67 62 55 51 52 41 24 22 7 348 335 315 301 296 295 289 282 283 282 277 266 257 261 263 259 259 259 255 251
186 190 193 191 187 185 182 178 175 175 173 172 171 168 165 161 154 146 137 125 115 108 106 105 104 103 99 95 92 88 85 82 78 78 74 66 58 53 54 54 49 45 34 15 349 316 303 296 287 284 287 289 288 283 276 267 264 261 255 253 252 253 252
189 191 197 198 195 196 192 187 186 184 182 182 181 178 173 170 165 159 152 141 130 121 115 112 107 105 102 99 98 96 91 88 85 82 77 69 56 43 36 32 33 34 29 19 351 322 311 298 288 293 297 291 283 278 275 267 261 261 256 246 244 252 256
195 194 200 203 200 202 201 195 195 195 193 189 187 183 178 176 172 167 162 153 146 141 132 127 121 112 108 102 102 102 100 97 97 92 84 76 62 46 32 17 11 18 14 4 351 335 328 317 306 303 299 291 282 274 273 270 265 263 261 255 251 251 252
203 200 201 203 202 204 205 203 202 201 199 195 190 185 182 181 179 173 169 165 160 156 151 147 142 134 128 121 117 115 114 112 110 106 98 88 77 63 47 26 14 19 9 354 346 340 332 322 310 300 292 291 295 292 284 281 276 268 259 261 261 249 247
211 209 207 205 204 206 209 209 209 205 203 200 192 185 185 186 185 180 177 173 169 167 165 162 158 154 148 142 140 135 132 132 124 116 110 100 92 82 68 51 36 28 12 355 341 335 326 314 305 297 291 290 292 294 294 291 288 283 272 271 277 268 260
219 219 217 214 210 211 211 210 210 207 204 202 196 189 188 188 188 188 185 180 178 176 174 172 167 164 162 156 152 148 145 147 142 132 123 115 107 98 84 66 53 40 18 353 335 328 319 308 300 291 286 284 281 282 287 292 289 286 283 278 276 274 274
224 224 223 220 215 214 214 212 211 209 205 203 201 196 193 192 191 192 192 190 187 185 182 180 176 174 172 166 163 159 155 158 160 150 143 135 125 121 110 86 64 51 8 340 325 321 313 305 300 295 288 281 274 272 277 281 281 280 281 282 281 280 282
226 226 225 223 220 220 219 215 214 212 207 204 202 199 198 198 196 195 197 196 193 192 190 187 184 182 181 177 174 169 161 166 172 165 161 156 151 150 142 124 159 55 346 326 316 313 305 298 296 293 288 282 275 270 269 271 273 276 279 281 282 281 281
230 230 229 226 225 226 223 220 218 215 211 208 203 200 201 202 201 199 199 200 199 197 194 192 190 189 188 183 177 173 168 174 177 171 170 170 166 170 187 260 262 269 308 314 311 307 302 297 293 287 281 277 274 271 269 270 274 279 280 279 278 279 280
235 236 235 233 231 230 228 225 223 218 213 211 206 204 204 203 202 203 203 203 203 201 199 198 195 195 195 187 179 177 177 179 179 173 173 179 181 188 221 269 291 295 296 303 307 305 304 299 293 287 281 278 276 274 272 273 277 281 283 282 281 279 279
233 236 238 238 236 234 232 230 227 223 220 216 211 209 208 204 202 203 204 204 203 202 201 199 199 200 199 193 187 184 181 181 180 175 178 185 192 210 244 276 296 302 301 305 306 305 304 298 293 290 285 279 275 274 273 272 275 279 283 284 283 282 281
232 236 239 241 241 238 234 231 229 226 224 222 217 213 210 207 205 203 202 204 203 201 200 199 200 201 200 196 192 187 183 182 180 180 184 189 200 226 256 281 294 302 304 305 306 305 303 297 294 290 285 280 275 272 270 269 270 274 279 282 281 281 281
239 241 243 245 246 244 240 236 233 228 224 222 218 214 210 208 209 207 204 204 203 201 201 200 199 200 198 194 191 187 184 183 182 185 190 196 208 224 245 271 287 297 302 304 304 303 301 298 294 288 284 281 279 276 273 270 269 271 274 277 279 279 278
244 245 246 247 249 251 248 243 240 236 230 224 215 206 205 210 214 213 209 207 205 203 201 200 199 199 195 190 188 185 183 182 185 189 194 204 216 225 244 266 281 289 295 299 299 298 296 294 290 286 284 282 280 279 276 273 271 272 272 274 277 278 276
251 246 243 242 242 246 249 246 243 238 232 227 212 202 213 221 218 215 213 210 208 204 200 199 198 195 191 187 184 181 181 183 187 192 201 215 232 245 260 272 278 283 289 292 294 294 294 292 287 284 281 280 279 278 275 273 272 271 271 273 274 274 274
261 248 243 240 237 239 241 240 241 235 228 226 214 210 225 228 218 216 217 214 211 206 199 196 194 190 186 182 179 178 179 184 188 196 211 229 246 261 271 277 279 281 281 283 286 287 287 286 285 284 282 280 278 275 274 274 273 270 270 271 272 272 273
274 260 250 244 240 240 238 238 239 233 226 228 224 223 233 233 221 217 216 213 211 206 198 195 191 184 180 175 173 173 175 181 189 198 220 250 264 273 278 281 280 276 273 279 285 286 283 279 276 275 276 277 278 276 274 272 271 271 270 270 271 272 272
280 274 266 257 250 246 242 240 238 231 227 234 235 232 237 240 230 221 214 209 205 198 190 188 183 176 173 169 167 168 171 174 183 199 229 262 274 281 283 283 283 279 279 287 293 294 289 282 275 271 269 269 270 272 274 273 270 270 270 271 271 272 271
280 278 274 269 263 253 245 237 233 231 228 233 236 233 234 235 227 219 212 200 190 185 183 183 182 179 177 171 161 156 164 172 182 209 235 259 275 283 286 285 285 282 282 287 292 295 293 287 282 277 273 269 266 264 265 267 269 269 269 270 270 270 269
283 279 274 271 266 257 248 237 230 231 229 230 232 229 225 220 213 209 202 187 180 187 188 185 186 185 184 183 174 160 166 179 195 225 244 265 279 284 287 288 285 281 278 278 280 284 285 283 282 280 278 275 270 264 259 258 260 263 265 268 270 268 267
287 280 273 268 261 253 246 237 230 230 230 229 226 222 219 216 210 204 192 176 175 184 183 180 183 183 183 186 182 171 173 190 224 254 263 274 283 285 287 287 284 280 278 276 277 277 276 278 281 282 281 277 271 267 263 259 257 257 259 263 267 266 265
287 282 275 269 261 251 245 237 231 230 230 226 219 214 213 209 201 191 177 168 170 172 170 171 176 176 174 176 176 171 177 208 256 262 268 278 282 283 283 283 282 281 279 277 276 275 277 281 283 282 281 276 270 269 268 264 260 257 255 254 257 261 263
283 281 278 273 265 257 247 237 230 227 227 224 216 210 207 199 187 174 169 169 166 161 161 163 165 164 163 165 166 165 180 233 263 261 271 278 278 279 280 279 280 281 280 278 275 273 277 283 286 285 282 277 274 273 269 265 260 256 252 249 250 256 261
280 278 276 273 268 262 252 241 233 226 225 223 215 206 199 188 175 169 169 168 161 154 152 155 158 157 155 146 106 150 205 257 267 266 277 279 276 279 279 277 281 282 280 279 278 277 279 283 286 287 284 281 279 276 272 268 264 259 256 255 255 258 260
277 275 274 271 267 262 254 245 235 225 223 219 204 189 183 175 169 167 164 161 156 149 146 150 154 149 140 111 83 193 258 279 280 279 285 284 282 283 279 277 282 284 282 281 280 281 282 283 286 286 285 283 281 278 275 273 270 267 264 263 262 263 264
276 275 273 270 267 262 256 249 235 222 219 209 184 170 170 166 160 158 155 153 151 146 144 148 148 134 118 86 59 308 289 295 291 290 293 290 288 288 285 285 284 280 278 278 277 277 279 282 285 285 284 283 280 278 276 275 274 273 270 269 269 268 267
275 273 271 269 267 263 255 239 214 200 199 189 170 161 159 153 146 144 144 143 143 142 142 143 139 126 109 61 25 334 306 302 298 298 301 299 297 294 291 290 286 278 277 278 277 277 278 280 281 282 283 282 279 277 276 276 275 274 273 272 271 270 268
273 269 268 269 266 254 226 192 182 185 186 176 162 153 148 141 134 133 135 135 136 138 140 140 134 123 106 36 4 339 315 307 306 307 306 304 301 297 293 291 286 282 285 287 286 285 284 282 280 280 281 278 275 275 278 277 276 277 277 274 271 270 269
271 268 267 265 252 215 194 195 192 184 172 157 146 140 136 133 130 131 133 134 134 136 141 145 139 119 90 12 335 320 309 306 308 308 306 302 299 296 295 293 289 288 290 290 288 286 283 281 279 278 277 274 272 273 277 277 277 277 277 274 271 270 268
270 269 265 251 213 174 185 194 178 163 153 143 136 133 131 129 130 130 131 130 128 129 140 151 152 142 115 304 298 299 299 301 304 305 303 298 295 294 293 293 295 294 292 288 285 282 281 282 282 280 276 274 273 273 274 274 274 274 272 269 267 266 265
268 262 246 216 183 165 170 168 156 147 141 136 132 131 131 131 132 132 132 130 127 131 146 156 160 175 282 292 296 301 303 304 306 306 300 294 293 295 295 296 296 293 289 287 287 287 288 289 286 282 277 275 275 275 274 272 270 268 265 263 262 261 260
259 243 213 187 173 159 153 150 144 138 136 135 135 135 137 138 139 138 139 138 138 142 148 156 194 305 315 312 311 312 312 313 315 312 301 293 294 295 296 296 295 292 292 293 295 296 296 294 290 285 283 281 279 277 274 269 265 262 260 258 257 256 255
Height
814 816 818 819 820 821 821 822 822 823 823 824 824 824 824 824 824 825 825 825 825 825 825 825 825 825 824 824 824 824 823 823 823 822 822 823 822 822 823 824 824 824 825 825 825 827 828 827 826 825 827 828 827 827 827 826 826 827 827 827 827 827 827
814 816 817 818 820 820 821 822 823 823 824 824 824 825 825 825 825 825 826 826 826 826 826 826 825 825 825 825 825 824 824 824 824 824 824 824 824 824 824 824 824 824 825 825 826 827 827 828 827 827 827 828 827 827 826 826 826 827 828 828 827 826 826
814 815 817 818 819 820 821 822 823 824 824 824 825 825 826 826 826 826 826 827 827 827 827 826 826 826 826 826 826 825 825 825 826 826 826 826 826 826 826 826 825 825 825 825 825 826 827 827 827 827 826 826 826 826 826 826 827 827 827 826 826 826 825
813 815 816 817 819 820 821 822 823 823 824 825 825 826 826 826 827 827 827 827 827 827 828 828 828 827 827 827 827 827 827 827 827 827 827 827 827 827 827 827 827 827 826 826 826 827 827 826 826 825 825 825 825 825 825 825 826 826 825 824 824 824 824
813 814 816 817 818 819 820 821 822 823 824 825 825 826 826 827 827 828 828 828 828 828 829 829 829 829 829 829 829 829 829 828 828 828 828 828 828 828 829 829 829 829 829 829 829 829 829 828 827 825 824 823 823 823 823 824 823 823 823 822 821 821 821
812 814 815 817 818 819 820 821 822 823 823 824 825 826 826 827 827 828 828 828 829 829 829 829 829 830 830 830 830 830 830 830 830 830 830 830 830 830 830 830 830 830 830 830 830 830 829 829 828 826 824 824 823 822 822 822 821 820 820 820 819 819 819
811 813 814 816 817 818 819 820 821 822 823 824 824 825 826 826 827 827 828 828 829 829 829 829 830 830 830 831 831 831 831 831 831 831 831 831 831 831 831 831 830 830 830 830 830 830 830 829 828 827 826 824 823 822 820 819 818 817 817 817 817 817 817
809 811 812 814 816 817 818 819 820 821 822 823 824 825 825 826 827 827 827 828 828 829 829 829 830 830 830 831 831 831 831 831 831 831 832 831 831 831 831 831 831 831 831 830 830 830 830 830 829 829 828 826 823 820 818 817 816 815 815 816 816 816 816
808 809 810 812 813 815 816 817 819 820 820 821 822 824 825 825 826 827 827 827 828 828 828 829 829 830 830 830 831 831 831 831 831 831 832 831 832 831 831 831 831 831 831 831 831 830 830 830 830 830 829 827 825 821 818 816 815 814 814 815 814 814 815
806 807 808 810 811 813 814 816 817 818 819 821 822 823 824 825 826 826 827 827 827 828 828 829 829 829 829 830 830 830 831 831 831 831 832 832 832 832 832 832 832 832 832 831 831 831 831 831 830 830 829 828 827 824 821 817 815 814 813 814 814 813 814
804 805 807 808 809 811 812 814 815 817 818 820 821 822 823 824 825 826 827 827 827 827 828 828 829 829 829 829 830 830 830 831 831 831 832 832 832 832 832 832 832 832 832 832 832 831 831 831 830 829 829 828 827 826 823 820 817 814 814 814 813 813 813
802 803 805 806 808 809 810 811 813 815 816 817 819 820 822 823 824 825 826 826 826 827 827 828 828 828 829 829 829 830 830 831 831 831 832 832 832 832 832 832 832 832 832 832 832 831 831 830 829 829 828 827 826 825 824 822 819 815 814 814 813 813 812
800 802 803 805 806 807 808 809 811 812 814 815 817 818 820 821 822 823 824 825 825 826 826 827 827 827 828 828 829 829 829 830 831 831 831 832 832 832 832 832 832 832 832 832 831 831 830 830 829 828 827 826 825 824 823 822 818 815 814 814 813 812 812
799 800 801 803 804 805 806 808 809 810 812 813 814 815 817 818 819 820 821 822 823 824 825 825 826 826 827 827 827 828 828 829 829 830 831 831 831 832 832 832 832 832 832 831 831 830 829 829 828 827 826 825 823 822 821 820 817 814 813 813 812 811 810
798 799 800 801 802 803 804 805 807 808 809 810 811 813 814 815 816 818 819 820 821 822 823 823 824 825 825 825 826 826 827 827 828 828 829 830 830 831 831 831 831 831 831 831 830 829 828 828 827 826 824 823 822 821 820 819 816 813 811 811 810 809 808
795 796 797 799 799 801 802 803 805 806 807 808 809 810 811 812 813 814 815 816 818 819 820 821 822 822 823 823 824 824 825 825 826 827 827 828 829 829 830 830 830 830 830 830 829 828 828 827 826 824 823 822 821 820 819 818 816 813 811 809 809 807 806
791 793 794 796 797 798 799 800 801 802 804 805 806 807 807 808 809 811 812 813 815 816 817 818 819 820 820 821 822 822 823 823 824 825 825 826 826 827 828 828 828 828 828 828 828 827 826 825 825 824 822 821 820 819 818 817 815 814 811 808 807 806 805
789 790 792 793 794 795 796 797 798 799 800 801 802 803 804 806 808 809 810 811 812 813 813 815 816 817 818 819 819 820 821 821 822 823 823 824 824 824 825 825 826 826 826 826 826 825 825 824 823 822 821 820 819 817 816 815 814 812 810 808 806 805 804
788 789 790 791 792 793 794 794 795 796 797 798 799 800 803 806 807 807 807 807 808 809 810 811 812 813 815 816 817 818 818 819 820 820 821 821 822 822 822 823 823 823 824 824 824 823 823 822 821 821 820 819 817 816 815 814 812 811 809 806 805 803 802
787 787 789 790 791 791 791 792 793 793 794 795 796 797 799 802 803 803 803 803 804 805 806 807 809 810 812 813 814 815 816 817 818 818 819 819 820 820 820 820 820 820 820 821 821 821 821 820 819 819 818 817 816 815 814 812 811 809 807 805 802 801 799
786 787 787 788 788 788 788 789 790 790 790 792 793 793 793 796 797 798 799 800 801 803 803 805 806 807 809 810 812 813 814 816 816 817 818 818 818 818 818 818 818 817 818 818 818 818 818 818 817 816 816 815 814 813 812 811 809 807 805 803 800 798 797
785 785 785 785 785 785 785 786 787 787 788 789 790 790 790 792 792 793 795 797 800 801 802 803 804 805 807 808 810 811 812 814 815 815 816 816 816 816 816 816 816 815 815 814 814 815 814 815 814 814 814 813 812 811 810 809 807 805 803 800 798 796 794
783 783 783 782 782 782 783 784 784 785 786 787 788 788 788 790 791 791 793 796 798 800 801 801 802 803 806 807 809 810 811 812 813 814 814 815 815 815 815 814 814 813 812 811 810 810 810 810 811 810 810 810 810 809 808 807 805 803 801 798 796 794 792
781 781 780 780 780 780 780 781 782 783 784 785 786 786 786 788 789 791 793 795 797 798 798 799 800 802 804 806 807 809 810 811 812 812 813 813 813 813 813 812 812 811 810 808 808 807 806 806 806 806 806 806 806 806 806 805 803 801 800 797 794 793 790
779 779 779 778 778 778 778 779 780 781 782 782 783 783 784 785 787 789 792 793 793 793 795 797 800 801 803 804 806 808 810 810 811 811 811 811 811 811 811 810 810 809 808 807 806 805 804 803 802 802 802 802 802 802 802 802 801 800 798 796 793 791 789
778 777 777 777 777 777 777 777 777 778 779 780 781 781 782 783 785 787 789 790 790 791 793 796 798 800 801 803 805 807 809 809 810 810 809 809 809 809 808 808 808 807 806 804 803 803 802 801 800 800 799 798 798 797 797 797 797 797 796 795 792 789 788
776 775 775 775 775 775 775 775 775 776 777 778 779 780 780 781 783 785 786 786 787 789 792 795 797 799 801 802 804 806 807 808 808 808 807 807 807 807 806 806 805 804 803 802 801 801 800 800 799 798 797 796 795 794 793 792 792 792 792 791 789 787 786
774 773 773 773 773 773 773 773 773 774 774 776 777 777 778 780 781 782 783 784 786 789 792 795 797 799 800 802 803 805 806 806 806 806 805 805 805 804 804 803 803 802 801 800 799 798 798 798 797 796 795 794 793 792 790 789 789 788 787 787 785 784 784
772 772 771 771 770 770 771 770 771 772 772 774 775 775 777 778 779 780 781 782 785 788 792 795 797 799 800 801 803 804 804 804 804 804 803 803 803 802 801 801 800 799 798 797 797 796 796 796 795 794 793 791 790 788 787 786 786 785 783 782 781 780 780
770 770 769 769 768 768 768 768 769 769 770 772 773 774 775 776 777 778 780 782 785 788 792 795 797 798 799 801 802 803 803 803 802 802 802 801 801 800 799 798 798 797 795 795 794 794 793 793 793 792 790 788 787 785 783 783 782 781 780 778 777 777 776
768 768 767 767 766 766 766 766 767 767 769 770 771 772 772 774 777 779 781 783 786 789 792 794 796 797 798 799 801 802 802 801 801 800 800 799 799 798 797 795 794 794 793 792 792 792 791 792 792 790 788 786 784 781 780 780 778 777 776 775 774 773 772
766 765 765 764 764 764 764 764 765 767 769 769 769 770 771 774 777 780 783 785 788 790 793 795 796 797 797 798 799 800 800 800 799 798 797 797 796 795 794 792 791 790 790 790 790 789 789 789 789 788 786 784 781 778 778 777 775 774 773 772 770 769 768
763 763 762 762 762 762 762 762 764 767 768 768 769 770 772 774 778 782 785 787 789 791 793 795 796 796 796 797 797 798 799 798 797 796 796 795 794 792 791 790 789 788 787 787 786 786 786 786 786 785 784 781 778 776 775 775 773 772 770 769 768 766 765
760 760 759 759 759 760 760 761 763 766 768 768 770 772 774 776 779 782 786 788 790 793 794 795 796 796 796 796 796 797 798 797 796 795 794 793 792 790 788 787 787 786 785 784 784 784 783 783 782 782 780 777 775 774 773 772 770 769 768 766 765 763 762
757 757 757 757 757 758 759 761 763 765 768 769 771 774 776 778 780 783 786 788 790 792 794 795 795 795 795 794 795 796 796 796 795 794 793 791 789 788 786 785 784 784 783 782 781 781 780 779 778 777 775 773 771 771 770 769 767 766 765 763 761 759 758
754 754 754 754 755 757 759 761 763 765 768 771 773 776 778 780 782 784 786 787 789 791 793 794 794 794 793 793 794 794 794 793 792 792 791 789 787 786 784 783 782 781 779 779 778 777 775 774 773 771 769 768 767 767 766 765 764 762 760 759 757 755 753
751 752 752 753 754 757 759 761 763 766 769 772 774 776 778 779 781 783 784 786 788 790 792 793 792 792 792 793 793 792 791 791 790 790 789 787 786 784 782 781 779 777 776 775 774 772 771 769 767 766 764 763 763 762 762 760 759 757 755 754 752 750 748